[[{"header":{"parameterUnit":"m.s-1","parameterCategory":1,"la1":30.2991,"la2":30.254,"lo1":-89.0895,"lo2":-89.0444,"dy":0.0017,"dx":0.0017,"nx":28,"ny":28,"refTime":"2023-08-29T03:00:00:Z","depth":0,"parameterNumber":2,"parameterNumberName":"U-component_of_WINDS"},"data":[0,0,0,0,0,0,0,0,0,0,0,0,0,0,0,0,0,0,0,0,0,0,0,0,0,0,0,0,0,0,0,0,0,0,0,0,0,0,0,0,0,0,0,0,0,0,0,0,0,0,0,0,0,0,0,0,0,0,-0.765,-0.765,0,-0.7702,-0.7703,-0.7704,-0.7659,-0.7657,-0.7655,-0.7653,-0.7711,-0.7714,-0.7718,0,0,0,0,0,0,0,0,0,0,0,0,0,-0.7513,-0.7516,-0.765,-0.765,-0.7651,-0.7702,-0.7703,-0.7704,-0.7659,-0.7657,-0.7655,-0.7652,-0.771,-0.7714,-0.7718,0,0,0,0,0,0,0,0,0,0,0,0,0,-0.757,-0.7517,-0.765,-0.7635,-0.7634,-0.7702,-0.7703,-0.7704,-0.766,-0.7657,-0.7654,-0.7651,-0.7709,-0.7714,-0.7718,-0.7805,0,0,-0.7733,-0.7736,0,0,0,0,0,0,0,0,-0.7567,-0.7575,-0.7636,-0.7636,-0.7635,-0.7671,-0.7676,-0.7738,-0.766,-0.765,-0.7653,-0.765,-0.77,-0.7706,-0.7722,-0.7808,-0.781,-0.7734,-0.7737,-0.7739,-0.774,0,0,0,0,0,0,0,-0.7563,-0.7573,-0.7671,-0.7637,-0.7637,-0.7626,-0.7631,-0.7688,-0.769,-0.7651,-0.7648,-0.7654,-0.7699,-0.7717,-0.7723,-0.7811,-0.7734,-0.7738,-0.7741,-0.7743,-0.797,-0.7973,0,0,0,0,0,0,-0.756,-0.757,-0.7669,-0.7672,-0.7593,-0.7631,-0.7637,-0.7662,-0.769,-0.7691,-0.7657,-0.7652,-0.771,-0.7717,-0.7725,-0.7828,-0.7739,-0.7744,-0.7746,-0.7967,-0.7971,-0.7974,0,0,0,0,0,0,-0.7557,-0.7569,-0.7667,-0.762,-0.7632,-0.7636,-0.7666,-0.7665,-0.7683,-0.7694,-0.7695,-0.7674,-0.7708,-0.7718,-0.7785,-0.783,-0.7746,-0.775,-0.7963,-0.7968,-0.7972,-0.8036,0,0,0,0,0,0,-0.7554,-0.7569,-0.7601,-0.7621,-0.7634,-0.7726,-0.7668,-0.7668,-0.7691,-0.7685,-0.7711,-0.7712,-0.7707,-0.7778,-0.779,-0.7835,-0.7754,-0.796,-0.7966,-0.7971,-0.803,-0.8042,-0.8053,0,0,0,0,0,-0.7549,-0.7618,-0.7603,-0.7615,-0.7675,-0.7728,-0.7736,-0.7728,-0.7695,-0.7728,-0.7735,-0.7711,-0.7822,-0.7785,-0.7798,-0.7846,-0.7957,-0.7964,-0.7971,-0.8025,-0.804,-0.8053,0,0,0,0,0,0,-0.7605,-0.762,-0.7604,-0.7681,-0.7704,-0.7721,-0.7763,-0.7744,-0.7777,-0.7771,-0.7759,-0.7765,-0.7836,-0.7847,-0.7806,-0.7931,-0.7884,-0.7894,-0.7921,-0.7936,-0.7947,-0.7944,-0.7758,0,0,0,0,0,-0.7626,-0.7667,-0.7679,-0.7746,-0.7758,-0.7758,-0.7781,-0.7772,-0.7795,-0.7805,-0.7817,-0.7842,-0.7882,-0.7909,-0.7947,-0.803,-0.8036,-0.8069,-0.8081,-0.809,-0.8099,-0.8145,-0.816,-0.7997,-0.7997,-0.7997,0,0,-0.7671,-0.7684,-0.7711,-0.7757,-0.7774,-0.7818,-0.7767,-0.7815,-0.7848,-0.7813,-0.7877,-0.7886,-0.7913,-0.7989,-0.8023,-0.8,-0.8145,-0.8099,-0.8106,-0.8111,-0.8154,-0.8169,-0.8183,-0.8002,-0.8001,-0.8,0,0,-0.7775,-0.7789,-0.7846,-0.7863,-0.7888,-0.7887,-0.7901,-0.792,-0.7925,-0.7988,-0.7963,-0.8002,-0.8071,-0.8091,-0.811,-0.822,-0.82,-0.8232,-0.8293,-0.8337,-0.835,-0.8361,-0.8402,-0.8416,-0.8241,-0.8241,-0.8241,0,-0.7829,-0.7893,-0.7879,-0.7929,-0.7951,-0.7918,-0.7977,-0.7994,-0.8031,-0.8046,-0.802,-0.8106,-0.8121,-0.8201,-0.8228,-0.8244,-0.826,-0.8231,-0.8349,-0.836,-0.8371,-0.8409,-0.8424,-0.8245,-0.8245,-0.8244,-0.8244,0,-0.7957,-0.8002,-0.8046,-0.808,-0.8106,-0.816,-0.8155,-0.8183,-0.8171,-0.8173,-0.8239,-0.8255,-0.8296,-0.8314,-0.8303,-0.8393,-0.8378,-0.835,-0.8304,-0.839,-0.8426,-0.8441,-0.8251,-0.8249,-0.8248,-0.8247,0,0,-0.8102,-0.8125,-0.8142,-0.8157,-0.818,-0.8215,-0.8268,-0.8306,-0.8331,-0.8356,-0.8401,-0.8459,-0.8433,-0.8455,-0.8446,-0.8484,-0.8571,-0.8452,-0.8452,-0.8475,-0.8672,-0.8694,-0.8711,-0.8556,-0.8559,-0.8561,-0.867,0,-0.8208,-0.8299,-0.8287,-0.8374,-0.8416,-0.8385,-0.843,-0.845,-0.8453,-0.8489,-0.8493,-0.8535,-0.8497,-0.851,-0.8546,-0.8553,-0.8611,-0.8544,-0.86,-0.8602,-0.8597,-0.873,-0.8754,-0.8855,-0.8684,-0.8686,-0.8688,0,-0.8346,-0.8374,-0.8465,-0.8481,-0.8498,-0.854,-0.8573,-0.8608,-0.8629,-0.8629,-0.8652,-0.8636,-0.8689,-0.8639,-0.8713,-0.8668,-0.869,-0.8696,-0.87,-0.8707,-0.8652,-0.8742,-0.8887,-0.8904,-0.8709,-0.8708,-0.8706,0,-0.8444,-0.8505,-0.8567,-0.8581,-0.8601,-0.8631,-0.8641,-0.8659,-0.8683,-0.8712,-0.8727,-0.8762,-0.8782,-0.881,-0.8804,-0.8768,-0.888,-0.883,-0.8882,-0.8883,-0.891,-0.8909,-0.9063,-0.892,-0.892,-0.8919,-0.8919,0,-0.8565,-0.8623,-0.8612,-0.8651,-0.8714,-0.8699,-0.8762,-0.8768,-0.8785,-0.8825,-0.8799,-0.8838,-0.8826,-0.8864,-0.8859,-0.8921,-0.893,-0.8932,-0.8931,-0.8936,-0.8936,-0.8952,-0.8945,-0.8923,-0.8922,-0.8922,-0.8921,0,-0.8688,-0.8682,-0.8748,-0.8761,-0.8765,-0.8811,-0.8823,-0.8859,-0.8859,-0.891,-0.8921,-0.8921,-0.8964,-0.8959,-0.9008,-0.9005,-0.9082,-0.9071,-0.9075,-0.9074,-0.9127,-0.9123,-0.9299,-0.9322,-0.9162,-0.9163,-0.9165,0,-0.8767,-0.881,-0.8827,-0.8851,-0.8862,-0.8902,-0.8925,-0.8911,-0.8936,-0.8963,-0.8997,-0.9037,-0.9069,-0.9139,-0.9144,-0.9181,-0.9172,-0.923,-0.9177,-0.9181,-0.9175,-0.9173,-0.9178,-0.9242,-0.9244,-0.9245,-0.9247,0,-0.8909,-0.8903,-0.8937,-0.8969,-0.8997,-0.9022,-0.9045,-0.9067,-0.9055,-0.9085,-0.9128,-0.9152,-0.92,-0.9241,-0.9275,-0.9286,-0.9266,-0.9263,-0.9277,-0.9284,-0.9286,-0.9287,-0.9106,-0.926,-0.9258,-0.9257,-0.9257,-0.9256,-0.9013,-0.905,-0.9067,-0.9105,-0.912,-0.9142,-0.9177,-0.918,-0.9215,-0.9252,-0.9242,-0.9291,-0.931,-0.9354,-0.9368,-0.9406,-0.9385,-0.9406,-0.9411,-0.9417,-0.9424,-0.9277,-0.9412,-0.9412,-0.9411,-0.9411,-0.9411,0,-0.9156,-0.9164,-0.9199,-0.9231,-0.9261,-0.9235,-0.9259,-0.9286,-0.9329,-0.9348,-0.9379,-0.9428,-0.9466,-0.9473,-0.951,-0.954,-0.9531,-0.955,-0.9549,-0.9552,-0.944,-0.9425,-0.9556,-0.9556,-0.9556,-0.9556,-0.9556,-0.9556,-0.9233,-0.9295,-0.9291,-0.9359,-0.9367,-0.9414,-0.943,-0.9449,-0.9464,-0.952,-0.9551,-0.9554,-0.9569,-0.9606,-0.9641,-0.9642,-0.9658,-0.9681,-0.9679,-0.9575,-0.956,-0.9546,-0.9532,-0.9684,-0.9684,-0.9788,-0.9788,-0.9789]},{"header":{"parameterUnit":"m.s-1","parameterCategory":1,"la1":30.2991,"la2":30.254,"lo1":-89.0895,"lo2":-89.0444,"dy":0.0017,"dx":0.0017,"nx":28,"ny":28,"refTime":"2023-08-29T03:00:00:Z","depth":0,"parameterNumber":3,"parameterNumberName":"V-component_of_WINDS"},"data":[0,0,0,0,0,0,0,0,0,0,0,0,0,0,0,0,0,0,0,0,0,0,0,0,0,0,0,0,0,0,0,0,0,0,0,0,0,0,0,0,0,0,0,0,0,0,0,0,0,0,0,0,0,0,0,0,0,0,-6.3107,-6.3108,0,-6.3236,-6.3237,-6.3239,-6.3171,-6.3167,-6.3164,-6.3161,-6.3286,-6.3293,-6.3299,0,0,0,0,0,0,0,0,0,0,0,0,0,-6.2796,-6.2803,-6.3107,-6.3109,-6.311,-6.3235,-6.3237,-6.3239,-6.3172,-6.3167,-6.3163,-6.3159,-6.3284,-6.3292,-6.33,0,0,0,0,0,0,0,0,0,0,0,0,0,-6.2929,-6.2805,-6.3107,-6.3092,-6.3092,-6.3235,-6.3237,-6.3239,-6.3172,-6.3167,-6.3162,-6.3157,-6.3282,-6.3291,-6.3301,-6.3464,0,0,-6.3331,-6.3335,0,0,0,0,0,0,0,0,-6.2921,-6.294,-6.3092,-6.3093,-6.3093,-6.3182,-6.3174,-6.3315,-6.3174,-6.3142,-6.3161,-6.3155,-6.3255,-6.3267,-6.3302,-6.347,-6.3475,-6.3332,-6.3338,-6.3342,-6.3344,0,0,0,0,0,0,0,-6.2912,-6.2934,-6.3158,-6.3095,-6.3095,-6.3077,-6.309,-6.32,-6.3225,-6.3144,-6.3139,-6.3156,-6.3254,-6.3293,-6.3305,-6.3477,-6.3331,-6.334,-6.3346,-6.335,-6.3785,-6.379,0,0,0,0,0,0,-6.2905,-6.2927,-6.3153,-6.3161,-6.2993,-6.3086,-6.3101,-6.3159,-6.3224,-6.3229,-6.316,-6.3152,-6.3279,-6.3293,-6.3309,-6.3505,-6.3342,-6.3351,-6.3356,-6.3779,-6.3786,-6.3792,0,0,0,0,0,0,-6.2898,-6.2926,-6.3148,-6.3043,-6.307,-6.3097,-6.3162,-6.3164,-6.3202,-6.3237,-6.324,-6.3195,-6.3275,-6.3295,-6.3426,-6.3508,-6.3355,-6.3364,-6.3773,-6.3782,-6.3789,-6.3897,0,0,0,0,0,0,-6.289,-6.2924,-6.2988,-6.3045,-6.3076,-6.3266,-6.3168,-6.317,-6.322,-6.3211,-6.327,-6.3275,-6.3273,-6.3412,-6.3436,-6.3519,-6.3372,-6.3765,-6.3777,-6.3787,-6.3887,-6.3908,-6.3927,0,0,0,0,0,-6.2879,-6.3012,-6.2991,-6.3019,-6.3157,-6.3271,-6.3288,-6.3285,-6.3227,-6.3291,-6.3312,-6.3273,-6.3495,-6.3426,-6.3453,-6.3539,-6.376,-6.3773,-6.3786,-6.3877,-6.3904,-6.3927,0,0,0,0,0,0,-6.296,-6.3019,-6.2997,-6.3153,-6.3208,-6.3259,-6.3339,-6.3313,-6.3384,-6.3372,-6.3363,-6.3377,-6.3513,-6.3539,-6.3461,-6.3701,-6.3618,-6.3637,-6.3679,-6.3705,-6.3725,-6.3715,-6.338,0,0,0,0,0,-6.2997,-6.3087,-6.3132,-6.3265,-6.3294,-6.3312,-6.3362,-6.3355,-6.341,-6.3432,-6.3464,-6.3518,-6.3599,-6.3653,-6.373,-6.389,-6.3901,-6.3962,-6.3983,-6.3999,-6.4015,-6.4101,-6.4129,-6.3834,-6.3834,-6.3834,0,0,-6.3072,-6.3115,-6.3172,-6.3282,-6.3324,-6.3416,-6.3332,-6.3432,-6.35,-6.3447,-6.3574,-6.3599,-6.3658,-6.3804,-6.387,-6.383,-6.4099,-6.4015,-6.4028,-6.4036,-6.4117,-6.4145,-6.417,-6.3843,-6.3841,-6.384,0,0,-6.3257,-6.3299,-6.3415,-6.3459,-6.3524,-6.3535,-6.3563,-6.3619,-6.3635,-6.3762,-6.3725,-6.3803,-6.3944,-6.3988,-6.4029,-6.4231,-6.4197,-6.4256,-6.4362,-6.4446,-6.4469,-6.4489,-6.4561,-6.4587,-6.4272,-6.4272,-6.4272,0,-6.3342,-6.3481,-6.3477,-6.3581,-6.363,-6.3588,-6.3704,-6.3746,-6.3832,-6.3866,-6.382,-6.3997,-6.4034,-6.419,-6.4239,-6.4274,-6.4304,-6.4249,-6.4466,-6.4487,-6.4506,-6.4574,-6.4601,-6.4279,-6.4278,-6.4277,-6.4277,0,-6.3582,-6.3679,-6.3764,-6.3851,-6.3909,-6.4018,-6.4029,-6.4088,-6.4076,-6.4091,-6.4221,-6.4264,-6.4349,-6.4386,-6.4373,-6.454,-6.4513,-6.4467,-6.4384,-6.4541,-6.4604,-6.4631,-6.4288,-6.4286,-6.4284,-6.4282,0,0,-6.3822,-6.3906,-6.3937,-6.3976,-6.4045,-6.4119,-6.4225,-6.4311,-6.4362,-6.4422,-6.451,-6.4631,-6.4589,-6.4636,-6.4628,-6.4702,-6.4858,-6.4646,-6.4647,-6.4684,-6.5044,-6.5078,-6.5109,-6.4837,-6.4841,-6.4845,-6.5039,0,-6.4011,-6.4201,-6.42,-6.4374,-6.4463,-6.4425,-6.4517,-6.4569,-6.4586,-6.4662,-6.468,-6.4766,-6.4704,-6.4732,-6.4803,-6.4824,-6.493,-6.481,-6.4917,-6.4921,-6.4904,-6.5142,-6.5179,-6.536,-6.5064,-6.5068,-6.5071,0,-6.4257,-6.4329,-6.4513,-6.4569,-6.4606,-6.469,-6.4768,-6.4842,-6.4899,-6.4906,-6.4959,-6.4939,-6.5046,-6.496,-6.5106,-6.5025,-6.5068,-6.5085,-6.5092,-6.5101,-6.5006,-6.5158,-6.5417,-6.5445,-6.5111,-6.5107,-6.5105,0,-6.4414,-6.4556,-6.4684,-6.4718,-6.4787,-6.4847,-6.4878,-6.493,-6.4982,-6.5049,-6.5082,-6.516,-6.5203,-6.5263,-6.5265,-6.5203,-6.5413,-6.5327,-6.542,-6.5421,-6.5466,-6.5463,-6.5736,-6.5494,-6.5494,-6.5493,-6.5493,0,-6.4626,-6.4739,-6.4755,-6.4834,-6.496,-6.4957,-6.5081,-6.5107,-6.5153,-6.5235,-6.5206,-6.5282,-6.528,-6.5358,-6.536,-6.548,-6.5499,-6.5507,-6.5506,-6.551,-6.5509,-6.5538,-6.5526,-6.5501,-6.5499,-6.5498,-6.5496,0,-6.4822,-6.4837,-6.4975,-6.5029,-6.5046,-6.5136,-6.5182,-6.5256,-6.5271,-6.5374,-6.5398,-6.5421,-6.5511,-6.5519,-6.5622,-6.5623,-6.5769,-6.5754,-6.5751,-6.5749,-6.5841,-6.5833,-6.6142,-6.6183,-6.5915,-6.5917,-6.592,0,-6.4956,-6.5043,-6.5108,-6.5162,-6.5197,-6.5284,-6.5337,-6.5336,-6.5392,-6.5464,-6.5529,-6.5617,-6.5687,-6.5832,-6.5856,-6.5935,-6.5922,-6.6025,-6.5933,-6.5934,-6.5923,-6.5918,-6.5927,-6.6042,-6.6045,-6.6048,-6.605,0,-6.5192,-6.5196,-6.5275,-6.5357,-6.5422,-6.5486,-6.5545,-6.559,-6.5597,-6.5661,-6.5754,-6.5809,-6.5915,-6.6002,-6.608,-6.6109,-6.6081,-6.6079,-6.6104,-6.6109,-6.6104,-6.6108,-6.58,-6.6071,-6.6069,-6.6068,-6.6066,-6.6066,-6.5362,-6.5438,-6.5495,-6.5584,-6.5629,-6.5686,-6.5759,-6.5784,-6.5862,-6.595,-6.5945,-6.6047,-6.61,-6.6202,-6.6238,-6.6316,-6.6281,-6.6319,-6.6328,-6.6337,-6.6347,-6.6091,-6.633,-6.6329,-6.6329,-6.6328,-6.6328,0,-6.5597,-6.5633,-6.5714,-6.58,-6.587,-6.5839,-6.5903,-6.5963,-6.6054,-6.6108,-6.6178,-6.6284,-6.6368,-6.64,-6.6481,-6.6538,-6.6527,-6.656,-6.6555,-6.6563,-6.6374,-6.6343,-6.6567,-6.6567,-6.6567,-6.6567,-6.6567,-6.6567,-6.5728,-6.5854,-6.5865,-6.6013,-6.6047,-6.6149,-6.6189,-6.624,-6.6283,-6.6404,-6.6475,-6.6495,-6.654,-6.6624,-6.6699,-6.6706,-6.6737,-6.6776,-6.6777,-6.66,-6.6576,-6.6553,-6.6524,-6.6782,-6.6783,-6.6959,-6.6961,-6.6962]}]]